Weather History for KDGW - November, 2012

Change the Weather History Date:

Friday, November 2, 2012

  Actual Average Record
Temperature  
Mean Temperature 43 °F 40 °F  
Max Temperature 59 °F 54 °F 74 °F (2008)
Min Temperature 27 °F 25 °F 1 °F (1999)
Degree Days  
Heating Degree Days 22 25  
Month to date heating degree days 38 50  
Since 1 July heating degree days 808 917  
Cooling Degree Days 0 0  
Month to date cooling degree days 0 0  
Year to date cooling degree days 831 486  
Moisture  
Dew Point 28 °F    
Average Humidity 57    
Maximum Humidity 89    
Minimum Humidity 24    
Precipitation  
Precipitation 0.00 in 0.03 in 0.57 in (1987)
Month to date precipitation 0.00 0.06  
Year to date precipitation 5.19 12.40  
Sea Level Pressure  
Sea Level Pressure 30.02 in    
Wind  
Wind Speed 6 mph (NNW)    
Max Wind Speed 17 mph    
Max Gust Speed 21 mph    
Visibility 10 miles    
Events      
T = Trace of Precipitation, MM = Missing Value Source: NWS Daily Summary

Daily Weather History Graph

Daily Weather History Graph

Search for Another Location

Airport or City:

Trip Planner

Search our weather history database for the weather conditions in past years. The results will help you decide how hot, cold, wet, or windy it might be!

Date:

Astronomy

Nov. 02, 2012 Rise Set
Actual Time 7:37 AM MDT 5:51 PM MDT
Civil Twilight 7:08 AM MDT 6:21 PM MDT
Nautical Twilight 6:34 AM MDT 6:54 PM MDT
Astronomical Twilight 6:01 AM MDT 7:27 PM MDT
Moon 8:38 PM MDT (11/2) 11:03 AM MDT (11/2)
Length of Visible Light 11h 13m
Length of Day
10h 14m
Waning Gibbous, 87% of the Moon is Illuminated
Nov 2
Waning Gibbous
Nov 6
Last Quarter
Nov 13
New
Nov 20
First Quarter
Nov 28
Full

Hourly Weather History & Observations

Time (MDT) Temp. Windchill Dew Point Humidity Pressure Visibility Wind Dir Wind Speed Gust Speed Precip Events Conditions
12:53 AM 50.0 °F - 26.1 °F 39% 29.83 in 10.0 mi West 9.2 mph - N/A   Clear
1:53 AM 46.0 °F 41.9 °F 27.0 °F 47% 29.83 in 10.0 mi NNE 8.1 mph - N/A   Overcast
2:53 AM 45.0 °F 39.7 °F 26.1 °F 48% 29.86 in 10.0 mi NNW 10.4 mph - N/A   Overcast
3:53 AM 45.0 °F 39.3 °F 27.0 °F 49% 29.86 in 10.0 mi WNW 11.5 mph - N/A   Scattered Clouds
4:27 AM 42.8 °F 34.8 °F 26.6 °F 53% 29.99 in 10.0 mi NW 17.3 mph - N/A   Overcast
4:53 AM 42.1 °F 34.9 °F 27.0 °F 55% 29.93 in 10.0 mi NNW 13.8 mph - N/A   Mostly Cloudy
5:53 AM 41.0 °F 35.8 °F 30.9 °F 67% 29.98 in 10.0 mi NW 8.1 mph - N/A   Clear
6:53 AM 37.9 °F 30.9 °F 32.0 °F 79% 30.01 in 10.0 mi NW 10.4 mph - N/A   Mostly Cloudy
7:53 AM 36.0 °F 30.3 °F 32.0 °F 86% 30.04 in 10.0 mi WNW 6.9 mph - N/A   Overcast
8:53 AM 37.9 °F - 34.0 °F 86% 30.05 in 10.0 mi Calm Calm - N/A   Scattered Clouds
9:53 AM 46.0 °F - 34.0 °F 63% 30.03 in 10.0 mi Calm Calm - N/A   Partly Cloudy
10:53 AM 51.1 °F - 32.0 °F 48% 30.03 in 10.0 mi North 3.5 mph - N/A   Scattered Clouds
11:53 AM 52.0 °F - 32.0 °F 47% 30.03 in 10.0 mi Calm Calm - N/A   Clear
12:53 PM 54.0 °F - 28.9 °F 38% 30.01 in 10.0 mi Variable 4.6 mph - N/A   Clear
1:53 PM 57.0 °F - 27.0 °F 32% 29.99 in 10.0 mi NNW 5.8 mph - N/A   Clear
2:53 PM 57.9 °F - 24.1 °F 27% 29.98 in 10.0 mi NW 12.7 mph 19.6 mph N/A   Clear
3:53 PM 57.0 °F - 21.0 °F 25% 29.99 in 10.0 mi NW 10.4 mph - N/A   Clear
4:53 PM 55.9 °F - 21.0 °F 26% 30.02 in 10.0 mi North 8.1 mph - N/A   Partly Cloudy
5:53 PM 48.0 °F - 28.0 °F 46% 30.07 in 10.0 mi ENE 8.1 mph - N/A   Mostly Cloudy
6:53 PM 41.0 °F 36.4 °F 28.0 °F 60% 30.14 in 10.0 mi ENE 6.9 mph - N/A   Partly Cloudy
7:53 PM 37.9 °F 34.4 °F 27.0 °F 65% 30.18 in 10.0 mi ESE 4.6 mph - N/A   Clear
8:53 PM 37.9 °F - 27.0 °F 65% 30.18 in 10.0 mi Calm Calm - N/A   Clear
9:53 PM 35.1 °F - 26.1 °F 70% 30.18 in 10.0 mi Calm Calm - N/A   Clear
10:53 PM 32.0 °F - 26.1 °F 79% 30.19 in 10.0 mi Calm Calm - N/A   Clear
11:53 PM 30.0 °F - 25.0 °F 82% 30.19 in 10.0 mi Calm Calm - N/A   Clear